Sauk Centre, MN

12:13 PM CST on December 11, 2019 (GMT -0600)
Sauk Centre

Weather History for KD39 - October, 2019

Change the Weather History Date:

Tuesday, October 15, 2019

  Actual Average (WUND) Record (WUND)
Temperature  
Mean Temperature 40 °F -  
Max Temperature 45 °F - - (-1)
Min Temperature 35 °F - - (-1)
Degree Days  
Heating Degree Days 25    
Moisture  
Dew Point 35 °F    
Average Humidity 78    
Maximum Humidity 91    
Minimum Humidity 65    
Precipitation  
Precipitation 0.00 in - - ()
Sea Level Pressure  
Sea Level Pressure 29.93 in    
Wind  
Wind Speed 8 mph ()    
Max Wind Speed 18 mph    
Max Gust Speed 25 mph    
Visibility 10.0 miles    
Events      
Averages and records for this station are not official NWS values.
T = Trace of Precipitation, MM = Missing Value Source: Averaged Metar Reports

Daily Weather History Graph

Daily Weather History Graph

Search for Another Location

Airport or City:

Astronomy

Oct. 15, 2019 Rise Set
Actual Time 7:35 AM CDT 6:34 PM CDT
Civil Twilight 7:06 AM CDT 7:04 PM CDT
Nautical Twilight 6:31 AM CDT 7:38 PM CDT
Astronomical Twilight 5:57 AM CDT 8:12 PM CDT
Moon 7:50 PM CDT (10/15) 9:10 AM CDT (10/15)
Length of Visible Light 11h 58m
Length of Day
10h 58m
Full, 97% of the Moon is Illuminated
Oct 15
Full
Oct 21
Last Quarter
Oct 27
New
Nov 4
First Quarter
Nov 12
Full

Hourly Weather History & Observations

Time (CDT) Temp. Windchill Dew Point Humidity Pressure Visibility Wind Dir Wind Speed Gust Speed Precip Events Conditions
12:17 AM 37.0 °F 32.4 °F 32.5 °F 84% 29.88 in 10.0 mi ENE 5.8 mph - N/A   Clear
12:35 AM 37.2 °F 31.9 °F 32.4 °F 83% 29.86 in 10.0 mi ENE 6.9 mph - N/A   Clear
12:55 AM 38.7 °F 32.9 °F 32.9 °F 80% 29.85 in 10.0 mi ENE 8.1 mph - N/A   Mostly Cloudy
12:56 AM 38.7 °F 32.4 °F 32.9 °F 80% 29.85 in 10.0 mi ENE 9.2 mph - N/A   Mostly Cloudy
1:15 AM 39.4 °F 33.2 °F 32.9 °F 78% 29.84 in 10.0 mi ENE 9.2 mph - N/A   Overcast
1:37 AM 39.7 °F 34.9 °F 33.3 °F 78% 29.85 in 10.0 mi NE 6.9 mph - N/A   Overcast
1:55 AM 39.7 °F 35.6 °F 33.4 °F 78% 29.84 in 10.0 mi NE 5.8 mph - N/A   Overcast
2:15 AM 39.6 °F 35.4 °F 34.0 °F 80% 29.83 in 10.0 mi NE 5.8 mph - N/A   Overcast
2:16 AM 39.6 °F 35.4 °F 34.0 °F 80% 29.83 in 10.0 mi NNE 5.8 mph - N/A   Overcast
2:35 AM 39.4 °F 35.2 °F 34.0 °F 81% 29.82 in 10.0 mi NE 5.8 mph - N/A   Overcast
3:16 AM 38.8 °F - 33.3 °F 80% 29.81 in 10.0 mi Calm Calm - N/A   Mostly Cloudy
3:36 AM 39.0 °F 36.8 °F 33.8 °F 82% 29.80 in 10.0 mi NE 3.5 mph - N/A   Overcast
3:55 AM 38.7 °F 36.3 °F 33.8 °F 83% 29.81 in 10.0 mi North 3.5 mph - N/A   Mostly Cloudy
3:56 AM 38.7 °F 36.3 °F 33.8 °F 83% 29.81 in 10.0 mi North 3.5 mph - N/A   Mostly Cloudy
4:15 AM 37.6 °F 35.1 °F 33.4 °F 85% 29.80 in 10.0 mi North 3.5 mph - N/A   Mostly Cloudy
4:19 AM 37.0 °F 32.4 °F 33.1 °F 86% 29.80 in 10.0 mi North 5.8 mph - N/A   Mostly Cloudy
4:38 AM 37.9 °F 33.5 °F 34.0 °F 86% 29.82 in 10.0 mi NNW 5.8 mph - N/A   Mostly Cloudy
4:55 AM 39.2 °F 33.6 °F 34.0 °F 82% 29.83 in 10.0 mi NNW 8.1 mph - N/A   Overcast
5:15 AM 39.2 °F 35.0 °F 34.0 °F 82% 29.83 in 10.0 mi North 5.8 mph - N/A   Overcast
5:16 AM 39.2 °F 35.0 °F 34.0 °F 82% 29.83 in 10.0 mi North 5.8 mph - N/A   Overcast
5:35 AM 39.2 °F 33.6 °F 33.4 °F 80% 29.82 in 10.0 mi NNE 8.1 mph - N/A   Overcast
5:58 AM 39.2 °F 33.6 °F 33.3 °F 79% 29.81 in 10.0 mi NNE 8.1 mph - N/A   Overcast
6:17 AM 39.7 °F 34.9 °F 33.4 °F 78% 29.81 in 10.0 mi NNE 6.9 mph - N/A   Overcast
6:36 AM 39.7 °F 35.6 °F 33.8 °F 79% 29.81 in 10.0 mi North 5.8 mph - N/A   Overcast
6:55 AM 39.0 °F 34.0 °F 33.8 °F 82% 29.83 in 10.0 mi NNW 6.9 mph - N/A   Mostly Cloudy
6:56 AM 38.8 °F 33.8 °F 33.8 °F 82% 29.83 in 10.0 mi NW 6.9 mph - N/A   Mostly Cloudy
7:15 AM 37.2 °F 31.9 °F 33.4 °F 86% 29.82 in 10.0 mi NNW 6.9 mph - N/A   Scattered Clouds
7:19 AM 37.2 °F 31.2 °F 33.3 °F 86% 29.83 in 10.0 mi NNW 8.1 mph - N/A   Scattered Clouds
7:38 AM 36.9 °F 34.3 °F 33.6 °F 88% 29.82 in 10.0 mi NNW 3.5 mph - N/A   Mostly Cloudy
7:55 AM 36.3 °F 30.8 °F 34.0 °F 91% 29.84 in 10.0 mi NW 6.9 mph - N/A   Mostly Cloudy
8:15 AM 35.6 °F 29.9 °F 33.1 °F 91% 29.84 in 10.0 mi NW 6.9 mph - N/A   Scattered Clouds
8:16 AM 35.4 °F 29.7 °F 33.1 °F 91% 29.84 in 10.0 mi NW 6.9 mph - N/A   Scattered Clouds
8:35 AM 36.7 °F 34.1 °F 34.0 °F 90% 29.84 in 10.0 mi WNW 3.5 mph - N/A   Scattered Clouds
8:36 AM 36.7 °F 34.1 °F 34.0 °F 90% 29.84 in 10.0 mi WNW 3.5 mph - N/A   Scattered Clouds
8:58 AM 38.3 °F 33.2 °F 34.9 °F 87% 29.86 in 10.0 mi WNW 6.9 mph - N/A   Mostly Cloudy
9:17 AM 39.7 °F 34.9 °F 34.5 °F 82% 29.86 in 10.0 mi NW 6.9 mph - N/A   Mostly Cloudy
9:36 AM 42.1 °F 36.6 °F 34.7 °F 75% 29.86 in 10.0 mi NW 9.2 mph - N/A   Mostly Cloudy
9:55 AM 41.9 °F 35.4 °F 34.3 °F 75% 29.87 in 10.0 mi NNW 11.5 mph - N/A   Overcast
9:56 AM 42.1 °F 35.7 °F 34.3 °F 74% 29.87 in 10.0 mi NNW 11.5 mph - N/A   Overcast
10:15 AM 42.1 °F 37.1 °F 34.9 °F 76% 29.87 in 10.0 mi NNW 8.1 mph - N/A   Overcast
10:37 AM 42.6 °F 37.8 °F 35.2 °F 75% 29.88 in 10.0 mi NNW 8.1 mph - N/A   Overcast
10:56 AM 44.4 °F 39.5 °F 34.2 °F 67% 29.88 in 10.0 mi NNW 9.2 mph - N/A   Overcast
11:15 AM 45.0 °F 40.1 °F 34.5 °F 67% 29.89 in 10.0 mi NNW 9.2 mph - N/A   Mostly Cloudy
11:16 AM 44.8 °F 39.9 °F 34.3 °F 67% 29.89 in 10.0 mi NNW 9.2 mph - N/A   Mostly Cloudy
11:35 AM 44.6 °F 39.7 °F 33.4 °F 65% 29.89 in 10.0 mi North 9.2 mph - N/A   Mostly Cloudy
11:59 AM 45.0 °F 40.1 °F 34.9 °F 68% 29.90 in 10.0 mi NW 9.2 mph - N/A   Mostly Cloudy
12:17 PM 44.1 °F 39.0 °F 34.0 °F 68% 29.91 in 10.0 mi NW 9.2 mph - N/A   Overcast
12:36 PM 44.6 °F 38.8 °F 33.8 °F 66% 29.91 in 10.0 mi NNW 11.5 mph - N/A   Overcast
12:55 PM 45.1 °F 39.9 °F 34.7 °F 67% 29.91 in 10.0 mi NW 10.4 mph - N/A   Overcast
12:56 PM 45.3 °F 40.1 °F 34.7 °F 66% 29.91 in 10.0 mi NNW 10.4 mph - N/A   Overcast
1:15 PM 45.7 °F 39.1 °F 35.8 °F 68% 29.91 in 10.0 mi NNW 15.0 mph 18.4 mph N/A   Overcast
1:36 PM 44.6 °F 38.8 °F 35.1 °F 69% 29.92 in 10.0 mi NW 11.5 mph - N/A   Overcast
1:56 PM 44.6 °F 37.4 °F 35.4 °F 70% 29.92 in 10.0 mi NW 16.1 mph - N/A   Overcast
2:15 PM 44.2 °F 39.2 °F 36.1 °F 73% 29.92 in 10.0 mi NW 9.2 mph 18.4 mph N/A   Overcast
2:16 PM 44.4 °F 38.6 °F 36.1 °F 73% 29.92 in 10.0 mi NW 11.5 mph - N/A   Overcast
2:35 PM 45.1 °F 38.8 °F 36.3 °F 71% 29.92 in 10.0 mi NW 13.8 mph 18.4 mph N/A   Overcast
2:57 PM 45.5 °F 39.6 °F 36.7 °F 71% 29.94 in 10.0 mi NW 12.7 mph 17.3 mph N/A   Overcast
3:16 PM 44.8 °F 37.7 °F 36.5 °F 73% 29.94 in 10.0 mi NW 16.1 mph - N/A   Overcast
3:35 PM 44.8 °F 38.3 °F 36.5 °F 73% 29.95 in 10.0 mi NNW 13.8 mph - N/A   Overcast
3:36 PM 44.6 °F 38.1 °F 36.5 °F 73% 29.95 in 10.0 mi NW 13.8 mph - N/A   Overcast
3:55 PM 45.0 °F 37.9 °F 36.7 °F 73% 29.95 in 10.0 mi NNW 16.1 mph 19.6 mph N/A   Overcast
3:56 PM 45.0 °F 38.5 °F 36.5 °F 72% 29.95 in 10.0 mi NNW 13.8 mph 19.6 mph N/A   Overcast
4:18 PM 45.0 °F 37.9 °F 36.7 °F 73% 29.96 in 10.0 mi NW 16.1 mph - N/A   Overcast
4:36 PM 44.6 °F 37.4 °F 36.5 °F 73% 29.97 in 10.0 mi NW 16.1 mph 20.7 mph N/A   Overcast
4:55 PM 44.6 °F 36.9 °F 36.1 °F 72% 29.98 in 10.0 mi NW 18.4 mph 24.2 mph N/A   Overcast
4:56 PM 44.6 °F 37.4 °F 36.0 °F 72% 29.98 in 10.0 mi NW 16.1 mph 24.2 mph N/A   Overcast
5:15 PM 44.1 °F 37.1 °F 35.8 °F 73% 29.99 in 10.0 mi NW 15.0 mph 23.0 mph N/A   Overcast
5:16 PM 44.1 °F 37.1 °F 35.6 °F 72% 29.99 in 10.0 mi NW 15.0 mph 23.0 mph N/A   Overcast
5:35 PM 44.6 °F 37.4 °F 34.7 °F 68% 29.99 in 10.0 mi NNW 16.1 mph 25.3 mph N/A   Overcast
5:40 PM 44.1 °F 36.5 °F 34.3 °F 69% 29.99 in 10.0 mi NW 17.3 mph 25.3 mph N/A   Overcast
5:57 PM 43.9 °F 36.8 °F 35.1 °F 71% 30.00 in 10.0 mi NW 15.0 mph 24.2 mph N/A   Overcast
6:35 PM 42.4 °F 35.0 °F 35.1 °F 75% 30.02 in 10.0 mi NW 15.0 mph 23.0 mph N/A   Overcast
6:55 PM 41.9 °F 35.0 °F 35.6 °F 78% 30.03 in 10.0 mi NW 12.7 mph 18.4 mph N/A   Overcast
6:56 PM 41.9 °F 34.6 °F 35.6 °F 78% 30.03 in 10.0 mi NW 13.8 mph 18.4 mph N/A   Overcast
7:18 PM 41.7 °F 34.8 °F 35.6 °F 79% 30.04 in 10.0 mi NW 12.7 mph 19.6 mph N/A   Overcast
7:36 PM 41.9 °F 34.6 °F 35.6 °F 78% 30.04 in 10.0 mi NNW 13.8 mph 18.4 mph N/A   Overcast
7:55 PM 41.5 °F 34.2 °F 35.8 °F 80% 30.05 in 10.0 mi NW 13.8 mph 17.3 mph N/A   Overcast
7:56 PM 41.5 °F 34.6 °F 35.8 °F 80% 30.05 in 10.0 mi NW 12.7 mph 17.3 mph N/A   Overcast
8:15 PM 41.9 °F 34.6 °F 35.1 °F 77% 30.05 in 10.0 mi NW 13.8 mph 19.6 mph N/A   Overcast
8:16 PM 41.9 °F 34.3 °F 35.1 °F 77% 30.05 in 10.0 mi NNW 15.0 mph 19.6 mph N/A   Overcast
8:35 PM 41.5 °F 35.0 °F 35.4 °F 79% 30.06 in 10.0 mi NNW 11.5 mph - N/A   Overcast
8:40 PM 41.5 °F 35.0 °F 35.6 °F 79% 30.06 in 10.0 mi NNW 11.5 mph 16.1 mph N/A   Overcast
9:15 PM 41.2 °F 33.7 °F 36.1 °F 82% 30.07 in 10.0 mi NW 13.8 mph - N/A   Overcast
9:35 PM 41.0 °F 32.8 °F 36.3 °F 83% 30.08 in 10.0 mi NW 16.1 mph - N/A   Overcast
9:36 PM 41.0 °F 33.1 °F 36.3 °F 83% 30.08 in 10.0 mi NW 15.0 mph 18.4 mph N/A   Overcast
9:55 PM 41.0 °F 33.9 °F 36.1 °F 83% 30.09 in 10.0 mi NW 12.7 mph 18.4 mph N/A   Overcast
9:56 PM 41.0 °F 33.5 °F 36.1 °F 83% 30.09 in 10.0 mi NW 13.8 mph 18.4 mph N/A   Overcast
10:19 PM 40.5 °F 32.8 °F 36.1 °F 85% 30.09 in 10.0 mi NW 13.8 mph 20.7 mph N/A   Overcast
10:36 PM 40.1 °F 33.2 °F 35.8 °F 85% 30.09 in 10.0 mi NW 11.5 mph 17.3 mph N/A   Overcast
10:55 PM 40.1 °F 33.2 °F 35.8 °F 85% 30.09 in 10.0 mi NW 11.5 mph - N/A   Overcast
10:56 PM 40.1 °F 33.2 °F 35.8 °F 85% 30.09 in 10.0 mi NW 11.5 mph - N/A   Overcast
11:15 PM 39.7 °F 32.7 °F 35.8 °F 86% 30.09 in 10.0 mi NW 11.5 mph - N/A   Overcast
11:16 PM 39.7 °F 32.7 °F 35.8 °F 86% 30.09 in 10.0 mi NW 11.5 mph - N/A   Overcast
11:35 PM 39.4 °F 32.3 °F 36.1 °F 88% 30.10 in 10.0 mi NW 11.5 mph - N/A   Overcast
11:40 PM 39.2 °F 30.8 °F 36.0 °F 88% 30.10 in 10.0 mi NW 15.0 mph 19.6 mph N/A   Overcast
11:57 PM 39.2 °F 32.0 °F 35.6 °F 87% 30.11 in 10.0 mi WNW 11.5 mph 19.6 mph N/A   Overcast